Time,TemperatureF,DewpointF,PressureIn,WindDirection,WindDirectionDegrees,WindSpeedMPH,WindSpeedGustMPH,Humidity,HourlyPrecipIn,Conditions,Clouds,dailyrainin,SoftwareType,DateUTC
2013-07-08 00:00:00,73.2,68.4,30.00,East,84,0.0,2.0,85,0.00,,,0.00,Weather View 32 v70,2013-07-08 05:00:00,
2013-07-08 00:10:00,73.2,68.4,30.00,East,84,0.0,2.0,85,0.00,,,0.00,Weather View 32 v70,2013-07-08 05:10:00,
2013-07-08 00:15:00,73.2,68.4,30.00,East,84,0.0,2.0,85,0.00,,,0.00,Weather View 32 v70,2013-07-08 05:15:00,
2013-07-08 00:20:00,73.2,68.4,30.00,East,84,0.0,2.0,85,0.00,,,0.00,Weather View 32 v70,2013-07-08 05:20:00,
2013-07-08 00:30:00,73.0,68.2,29.97,East,84,0.0,2.0,85,0.00,,,0.00,Weather View 32 v70,2013-07-08 05:30:00,
2013-07-08 00:40:00,73.0,68.2,29.97,East,84,0.0,0.0,85,0.00,,,0.00,Weather View 32 v70,2013-07-08 05:40:00,
2013-07-08 00:45:00,73.0,68.2,29.97,East,84,0.0,0.0,85,0.04,,,0.04,Weather View 32 v70,2013-07-08 05:45:00,
2013-07-08 00:55:00,73.0,68.2,29.97,East,84,0.0,0.0,85,0.04,,,0.04,Weather View 32 v70,2013-07-08 05:55:00,
2013-07-08 01:00:00,73.0,68.2,29.97,East,84,0.0,0.0,85,0.04,,,0.04,Weather View 32 v70,2013-07-08 06:00:00,
2013-07-08 01:10:00,72.9,68.1,29.97,East,84,0.0,0.0,85,0.04,,,0.04,Weather View 32 v70,2013-07-08 06:10:00,
2013-07-08 01:15:00,72.7,67.9,29.97,East,84,0.0,0.0,85,0.04,,,0.04,Weather View 32 v70,2013-07-08 06:15:00,
2013-07-08 01:25:00,72.7,67.9,29.97,East,84,0.0,0.0,85,0.04,,,0.04,Weather View 32 v70,2013-07-08 06:25:00,
2013-07-08 01:30:00,72.9,68.1,29.97,East,84,0.0,0.0,85,0.04,,,0.04,Weather View 32 v70,2013-07-08 06:30:00,
2013-07-08 01:40:00,72.9,68.1,29.97,East,84,0.0,0.0,85,0.04,,,0.04,Weather View 32 v70,2013-07-08 06:40:00,
2013-07-08 01:45:00,72.9,68.1,29.97,East,84,0.0,0.0,85,0.00,,,0.04,Weather View 32 v70,2013-07-08 06:45:00,
2013-07-08 01:55:00,73.0,68.2,29.97,East,84,0.0,0.0,85,0.00,,,0.04,Weather View 32 v70,2013-07-08 06:55:00,
2013-07-08 02:00:00,73.0,68.2,29.97,East,84,0.0,0.0,85,0.00,,,0.04,Weather View 32 v70,2013-07-08 07:00:00,
2013-07-08 02:10:00,73.0,68.2,29.97,East,84,0.0,0.0,85,0.00,,,0.04,Weather View 32 v70,2013-07-08 07:10:00,
2013-07-08 02:15:00,73.0,68.2,29.97,East,84,0.0,0.0,85,0.00,,,0.04,Weather View 32 v70,2013-07-08 07:15:00,
2013-07-08 02:25:00,73.0,68.2,29.94,East,84,0.0,0.0,85,0.00,,,0.04,Weather View 32 v70,2013-07-08 07:25:00,
2013-07-08 02:35:00,73.0,68.2,29.94,East,84,0.0,0.0,85,0.00,,,0.04,Weather View 32 v70,2013-07-08 07:35:00,
2013-07-08 02:45:00,72.9,68.1,29.94,East,84,0.0,0.0,85,0.00,,,0.04,Weather View 32 v70,2013-07-08 07:45:00,
2013-07-08 02:50:00,72.9,68.1,29.94,East,84,0.0,0.0,85,0.00,,,0.04,Weather View 32 v70,2013-07-08 07:50:00,
2013-07-08 02:55:00,73.0,68.2,29.94,East,84,0.0,0.0,85,0.00,,,0.04,Weather View 32 v70,2013-07-08 07:55:00,
2013-07-08 03:01:00,73.0,68.2,29.94,East,84,0.0,0.0,85,0.00,,,0.04,Weather View 32 v70,2013-07-08 08:01:00,
2013-07-08 03:10:00,73.0,68.2,29.94,East,84,0.0,0.0,85,0.00,,,0.04,Weather View 32 v70,2013-07-08 08:10:00,
2013-07-08 03:15:00,73.0,68.2,29.94,East,84,0.0,0.0,85,0.00,,,0.04,Weather View 32 v70,2013-07-08 08:15:00,
2013-07-08 03:20:00,73.0,68.2,29.94,East,84,0.0,0.0,85,0.00,,,0.04,Weather View 32 v70,2013-07-08 08:20:00,
2013-07-08 03:30:00,73.0,68.2,29.94,East,84,0.0,0.0,85,0.00,,,0.04,Weather View 32 v70,2013-07-08 08:30:00,
2013-07-08 03:35:00,73.0,68.2,29.94,East,84,0.0,0.0,85,0.00,,,0.04,Weather View 32 v70,2013-07-08 08:35:00,
2013-07-08 03:45:00,73.0,68.2,29.94,East,84,0.0,0.0,85,0.00,,,0.04,Weather View 32 v70,2013-07-08 08:45:00,
2013-07-08 03:50:00,72.9,68.1,29.94,East,84,0.0,0.0,85,0.00,,,0.04,Weather View 32 v70,2013-07-08 08:50:00,
2013-07-08 04:00:00,72.9,68.1,29.94,East,84,0.0,0.0,85,0.00,,,0.04,Weather View 32 v70,2013-07-08 09:00:00,
2013-07-08 04:10:00,72.9,68.1,29.94,East,84,0.0,0.0,85,0.00,,,0.04,Weather View 32 v70,2013-07-08 09:10:00,
2013-07-08 04:15:00,72.9,68.1,29.94,East,84,0.0,0.0,85,0.00,,,0.04,Weather View 32 v70,2013-07-08 09:15:00,
2013-07-08 04:25:00,72.7,68.2,29.94,East,84,0.0,0.0,86,0.00,,,0.04,Weather View 32 v70,2013-07-08 09:25:00,
2013-07-08 04:35:00,72.9,68.4,29.94,East,84,0.0,0.0,86,0.00,,,0.04,Weather View 32 v70,2013-07-08 09:35:00,
2013-07-08 04:40:00,72.9,68.4,29.94,East,84,0.0,0.0,86,0.00,,,0.04,Weather View 32 v70,2013-07-08 09:40:00,
2013-07-08 04:50:00,72.9,68.4,29.94,East,84,0.0,0.0,86,0.00,,,0.04,Weather View 32 v70,2013-07-08 09:50:00,
2013-07-08 04:55:00,72.9,68.4,29.94,East,84,0.0,0.0,86,0.00,,,0.04,Weather View 32 v70,2013-07-08 09:55:00,
2013-07-08 05:02:00,72.9,68.4,29.94,East,84,0.0,0.0,86,0.00,,,0.04,Weather View 32 v70,2013-07-08 10:02:00,
2013-07-08 05:10:00,72.9,68.4,29.94,East,84,0.0,0.0,86,0.00,,,0.04,Weather View 32 v70,2013-07-08 10:10:00,
2013-07-08 05:15:00,72.9,68.4,29.94,East,84,0.0,0.0,86,0.00,,,0.04,Weather View 32 v70,2013-07-08 10:15:00,
2013-07-08 05:20:00,72.9,68.4,29.94,East,84,0.0,0.0,86,0.00,,,0.04,Weather View 32 v70,2013-07-08 10:20:00,
2013-07-08 05:25:00,72.9,68.4,29.97,East,84,0.0,0.0,86,0.00,,,0.04,Weather View 32 v70,2013-07-08 10:25:00,
2013-07-08 05:30:00,72.9,68.4,29.97,East,84,0.0,0.0,86,0.00,,,0.04,Weather View 32 v70,2013-07-08 10:30:00,
2013-07-08 05:40:00,72.9,68.4,29.97,East,84,0.0,0.0,86,0.00,,,0.04,Weather View 32 v70,2013-07-08 10:40:00,
2013-07-08 05:45:00,72.9,68.4,29.97,East,84,0.0,0.0,86,0.00,,,0.04,Weather View 32 v70,2013-07-08 10:45:00,
2013-07-08 05:55:00,72.9,68.4,29.97,East,84,0.0,0.0,86,0.00,,,0.04,Weather View 32 v70,2013-07-08 10:55:00,
2013-07-08 06:02:00,72.9,68.4,29.97,East,84,0.0,0.0,86,0.00,,,0.04,Weather View 32 v70,2013-07-08 11:02:00,
2013-07-08 06:10:00,72.7,68.2,29.97,East,84,0.0,0.0,86,0.00,,,0.04,Weather View 32 v70,2013-07-08 11:10:00,
2013-07-08 06:15:00,72.7,67.9,29.97,East,84,0.0,0.0,85,0.00,,,0.04,Weather View 32 v70,2013-07-08 11:15:00,
2013-07-08 06:20:00,72.7,68.2,29.97,East,84,0.0,0.0,86,0.00,,,0.04,Weather View 32 v70,2013-07-08 11:20:00,
2013-07-08 06:30:00,72.9,68.4,29.97,East,84,0.0,0.0,86,0.00,,,0.04,Weather View 32 v70,2013-07-08 11:30:00,
2013-07-08 06:35:00,72.9,68.4,29.97,East,84,0.0,0.0,86,0.00,,,0.04,Weather View 32 v70,2013-07-08 11:35:00,
2013-07-08 06:40:00,72.9,68.4,30.00,East,84,0.0,0.0,86,0.00,,,0.04,Weather View 32 v70,2013-07-08 11:40:00,
2013-07-08 06:50:00,72.9,68.4,30.00,East,84,0.0,0.0,86,0.00,,,0.04,Weather View 32 v70,2013-07-08 11:50:00,
2013-07-08 06:55:00,72.9,68.4,30.00,East,84,0.0,0.0,86,0.00,,,0.04,Weather View 32 v70,2013-07-08 11:55:00,
2013-07-08 07:03:00,72.9,68.4,30.00,East,84,0.0,0.0,86,0.00,,,0.04,Weather View 32 v70,2013-07-08 12:03:00,
2013-07-08 07:10:00,73.0,68.6,30.00,East,84,0.0,0.0,86,0.00,,,0.04,Weather View 32 v70,2013-07-08 12:10:00,
2013-07-08 07:20:00,73.2,68.8,30.00,East,84,0.0,0.0,86,0.00,,,0.04,Weather View 32 v70,2013-07-08 12:20:00,
2013-07-08 07:30:00,73.2,68.8,30.00,East,84,0.0,0.0,86,0.00,,,0.04,Weather View 32 v70,2013-07-08 12:30:00,
2013-07-08 07:40:00,73.4,68.6,30.00,East,84,0.0,0.0,85,0.00,,,0.04,Weather View 32 v70,2013-07-08 12:40:00,
2013-07-08 07:45:00,73.6,68.8,30.00,East,84,0.0,0.0,85,0.00,,,0.04,Weather View 32 v70,2013-07-08 12:45:00,
2013-07-08 07:55:00,73.6,68.8,30.00,East,84,0.0,0.0,85,0.00,,,0.04,Weather View 32 v70,2013-07-08 12:55:00,
2013-07-08 08:00:00,73.8,68.9,30.00,East,84,0.0,0.0,85,0.00,,,0.04,Weather View 32 v70,2013-07-08 13:00:00,
2013-07-08 13:05:00,81.1,72.8,30.00,SSW,195,4.0,4.0,76,0.00,,,0.04,Weather View 32 v70,2013-07-08 18:05:00,
2013-07-08 13:15:00,81.5,71.6,30.00,SSE,166,0.0,6.0,72,0.00,,,0.04,Weather View 32 v70,2013-07-08 18:15:00,
2013-07-08 13:20:00,81.5,71.6,30.00,ESE,103,4.0,6.0,72,0.00,,,0.04,Weather View 32 v70,2013-07-08 18:20:00,
2013-07-08 13:35:00,80.8,70.5,30.03,ESE,118,0.0,6.0,71,0.00,,,0.04,Weather View 32 v70,2013-07-08 18:35:00,
2013-07-08 13:45:00,80.1,71.0,30.03,ESE,111,3.0,6.0,74,0.00,,,0.04,Weather View 32 v70,2013-07-08 18:45:00,
2013-07-08 13:50:00,79.5,70.9,30.03,ESE,108,0.0,6.0,75,0.00,,,0.04,Weather View 32 v70,2013-07-08 18:50:00,
2013-07-08 14:01:00,78.6,70.8,30.03,ESE,108,0.0,6.0,77,0.00,,,0.08,Weather View 32 v70,2013-07-08 19:01:00,
2013-07-08 14:10:00,78.4,71.4,30.00,ESE,108,0.0,6.0,79,0.04,,,0.08,Weather View 32 v70,2013-07-08 19:10:00,
2013-07-08 14:15:00,78.4,71.4,30.00,ESE,108,0.0,5.0,79,0.04,,,0.08,Weather View 32 v70,2013-07-08 19:15:00,
2013-07-08 14:25:00,78.4,71.7,30.00,ESE,108,0.0,5.0,80,0.04,,,0.08,Weather View 32 v70,2013-07-08 19:25:00,
2013-07-08 14:40:00,78.8,72.4,30.00,SE,129,0.0,3.0,81,0.08,,,0.12,Weather View 32 v70,2013-07-08 19:40:00,
2013-07-08 14:45:00,78.8,72.8,30.00,SE,126,0.0,3.0,82,0.08,,,0.12,Weather View 32 v70,2013-07-08 19:45:00,
2013-07-08 14:55:00,78.6,72.6,30.00,SSE,147,0.0,0.0,82,0.04,,,0.12,Weather View 32 v70,2013-07-08 19:55:00,
2013-07-08 15:35:00,76.1,70.2,30.00,ENE,72,0.0,2.0,82,0.04,,,0.12,Weather View 32 v70,2013-07-08 20:35:00,
2013-07-08 15:50:00,75.9,70.0,30.00,ENE,72,0.0,2.0,82,0.04,,,0.16,Weather View 32 v70,2013-07-08 20:50:00,
2013-07-08 15:55:00,75.9,70.4,30.00,ENE,72,0.0,2.0,83,0.04,,,0.16,Weather View 32 v70,2013-07-08 20:55:00,
2013-07-08 16:30:00,75.9,70.4,30.00,ENE,72,0.0,0.0,83,0.00,,,0.16,Weather View 32 v70,2013-07-08 21:30:00,
2013-07-08 16:40:00,75.9,70.7,30.00,ENE,72,0.0,0.0,84,0.04,,,0.16,Weather View 32 v70,2013-07-08 21:40:00,
2013-07-08 17:00:00,76.1,70.9,30.00,ENE,72,0.0,0.0,84,0.00,,,0.16,Weather View 32 v70,2013-07-08 22:00:00,
2013-07-08 17:10:00,76.3,71.1,30.00,ENE,72,0.0,0.0,84,0.00,,,0.16,Weather View 32 v70,2013-07-08 22:10:00,
2013-07-08 17:15:00,76.3,71.1,30.00,ENE,72,0.0,0.0,84,0.00,,,0.16,Weather View 32 v70,2013-07-08 22:15:00,
2013-07-08 17:20:00,76.3,71.1,30.00,ENE,72,0.0,0.0,84,0.00,,,0.16,Weather View 32 v70,2013-07-08 22:20:00,
2013-07-08 17:30:00,76.5,71.2,30.00,ENE,72,0.0,0.0,84,0.00,,,0.16,Weather View 32 v70,2013-07-08 22:30:00,
2013-07-08 17:40:00,76.5,71.2,30.00,ENE,72,0.0,0.0,84,0.00,,,0.16,Weather View 32 v70,2013-07-08 22:40:00,
2013-07-08 17:55:00,76.3,71.1,30.00,ENE,72,0.0,0.0,84,0.00,,,0.16,Weather View 32 v70,2013-07-08 22:55:00,
2013-07-08 18:10:00,76.1,70.9,30.00,ENE,72,0.0,0.0,84,0.00,,,0.16,Weather View 32 v70,2013-07-08 23:10:00,
2013-07-08 18:15:00,76.3,71.1,30.00,ENE,72,0.0,0.0,84,0.00,,,0.16,Weather View 32 v70,2013-07-08 23:15:00,
2013-07-08 18:20:00,76.3,71.1,30.00,ENE,72,0.0,0.0,84,0.00,,,0.16,Weather View 32 v70,2013-07-08 23:20:00,
2013-07-08 18:30:00,76.3,71.1,30.00,ENE,67,0.0,0.0,84,0.00,,,0.16,Weather View 32 v70,2013-07-08 23:30:00,
2013-07-08 18:40:00,76.3,71.1,30.00,ENE,67,0.0,0.0,84,0.00,,,0.16,Weather View 32 v70,2013-07-08 23:40:00,
2013-07-08 18:45:00,76.3,71.4,30.00,ENE,67,0.0,0.0,85,0.00,,,0.16,Weather View 32 v70,2013-07-08 23:45:00,
2013-07-08 18:55:00,76.1,70.9,30.00,ENE,68,0.0,0.0,84,0.00,,,0.16,Weather View 32 v70,2013-07-08 23:55:00,
2013-07-08 19:10:00,76.1,71.2,30.00,ENE,67,0.0,0.0,85,0.00,,,0.16,Weather View 32 v70,2013-07-09 00:10:00,
2013-07-08 19:15:00,76.1,71.2,30.00,ENE,67,0.0,0.0,85,0.00,,,0.16,Weather View 32 v70,2013-07-09 00:15:00,
2013-07-08 19:20:00,76.3,71.4,30.00,ENE,67,0.0,0.0,85,0.00,,,0.16,Weather View 32 v70,2013-07-09 00:20:00,
2013-07-08 19:25:00,76.1,71.2,30.00,ENE,67,0.0,0.0,85,0.00,,,0.16,Weather View 32 v70,2013-07-09 00:25:00,
2013-07-08 19:40:00,75.9,71.1,30.00,ENE,67,0.0,0.0,85,0.00,,,0.16,Weather View 32 v70,2013-07-09 00:40:00,
2013-07-08 19:50:00,75.9,71.1,30.00,ENE,67,0.0,0.0,85,0.00,,,0.16,Weather View 32 v70,2013-07-09 00:50:00,
2013-07-08 20:00:00,75.9,71.1,30.00,ENE,67,0.0,0.0,85,0.00,,,0.16,Weather View 32 v70,2013-07-09 01:00:00,
2013-07-08 20:10:00,75.9,71.1,29.97,ENE,67,0.0,0.0,85,0.00,,,0.16,Weather View 32 v70,2013-07-09 01:10:00,
2013-07-08 20:25:00,75.6,70.7,30.00,ENE,67,0.0,0.0,85,0.00,,,0.16,Weather View 32 v70,2013-07-09 01:25:00,
2013-07-08 20:30:00,75.4,70.5,30.00,ENE,67,0.0,0.0,85,0.00,,,0.16,Weather View 32 v70,2013-07-09 01:30:00,
2013-07-08 20:45:00,75.4,70.5,30.00,ENE,67,0.0,0.0,85,0.00,,,0.16,Weather View 32 v70,2013-07-09 01:45:00,
2013-07-08 20:55:00,75.2,70.4,30.00,ENE,67,0.0,0.0,85,0.00,,,0.16,Weather View 32 v70,2013-07-09 01:55:00,
2013-07-08 21:05:00,75.2,70.4,30.00,ENE,67,0.0,0.0,85,0.00,,,0.16,Weather View 32 v70,2013-07-09 02:05:00,
2013-07-08 21:10:00,75.4,70.5,30.00,ENE,67,0.0,0.0,85,0.00,,,0.16,Weather View 32 v70,2013-07-09 02:10:00,
2013-07-08 21:15:00,75.2,70.4,30.00,ENE,67,0.0,0.0,85,0.00,,,0.16,Weather View 32 v70,2013-07-09 02:15:00,
2013-07-08 21:21:00,75.2,70.4,30.00,ENE,67,0.0,0.0,85,0.00,,,0.16,Weather View 32 v70,2013-07-09 02:21:00,
2013-07-08 21:35:00,75.0,70.2,30.00,ENE,67,0.0,0.0,85,0.00,,,0.16,Weather View 32 v70,2013-07-09 02:35:00,
2013-07-08 21:40:00,74.8,70.0,30.03,ENE,67,0.0,0.0,85,0.00,,,0.16,Weather View 32 v70,2013-07-09 02:40:00,
2013-07-08 21:45:00,75.0,70.5,30.03,ENE,67,0.0,0.0,86,0.00,,,0.16,Weather View 32 v70,2013-07-09 02:45:00,
2013-07-08 22:00:00,74.7,70.2,30.03,ENE,67,0.0,0.0,86,0.00,,,0.16,Weather View 32 v70,2013-07-09 03:00:00,
2013-07-08 22:10:00,74.7,70.2,30.03,ENE,67,0.0,0.0,86,0.00,,,0.16,Weather View 32 v70,2013-07-09 03:10:00,
2013-07-08 22:20:00,74.5,70.0,30.03,ENE,67,0.0,0.0,86,0.00,,,0.16,Weather View 32 v70,2013-07-09 03:20:00,
2013-07-08 22:40:00,74.5,70.0,30.00,ENE,67,0.0,0.0,86,0.00,,,0.16,Weather View 32 v70,2013-07-09 03:40:00,
2013-07-08 22:50:00,74.3,69.8,30.00,ENE,67,0.0,0.0,86,0.00,,,0.16,Weather View 32 v70,2013-07-09 03:50:00,
2013-07-08 23:00:00,74.3,69.8,30.03,ENE,67,0.0,0.0,86,0.00,,,0.16,Weather View 32 v70,2013-07-09 04:00:00,
2013-07-08 23:05:00,74.1,69.6,30.03,ENE,67,0.0,0.0,86,0.00,,,0.16,Weather View 32 v70,2013-07-09 04:05:00,
2013-07-08 23:10:00,74.1,69.6,30.03,ENE,67,0.0,0.0,86,0.00,,,0.16,Weather View 32 v70,2013-07-09 04:10:00,
2013-07-08 23:15:00,74.1,69.6,30.03,ENE,67,0.0,0.0,86,0.00,,,0.16,Weather View 32 v70,2013-07-09 04:15:00,
2013-07-08 23:20:00,73.9,69.5,30.03,ENE,67,0.0,0.0,86,0.00,,,0.16,Weather View 32 v70,2013-07-09 04:20:00,
2013-07-08 23:25:00,73.9,69.5,30.03,ENE,67,0.0,0.0,86,0.00,,,0.16,Weather View 32 v70,2013-07-09 04:25:00,
2013-07-08 23:30:00,73.8,69.3,30.03,ENE,67,0.0,0.0,86,0.00,,,0.16,Weather View 32 v70,2013-07-09 04:30:00,
2013-07-08 23:35:00,73.8,69.3,30.03,ENE,67,0.0,0.0,86,0.00,,,0.16,Weather View 32 v70,2013-07-09 04:35:00,
2013-07-08 23:45:00,73.6,68.4,30.03,ENE,67,0.0,0.0,84,0.00,,,0.16,Weather View 32 v70,2013-07-09 04:45:00,
2013-07-08 23:55:00,73.6,69.1,30.03,ENE,67,0.0,0.0,86,0.00,,,0.16,Weather View 32 v70,2013-07-09 04:55:00,